Location: Llanfihangel-Ystrad
(52.1833°N, 4.1667°W)
Time: 17:00:43
(UTC+00:00)

Cosmos 2360 Rocket - Pass Details

Date: 17 February 2020
Orbit: 836 x 843 km, 71.0° (Epoch: 01 April)

Event Time Altitude Azimuth Distance (km) Brightness Sun altitude
Exits shadow 04:26:20 21° 341° (NNW) 1,819 3.9 -28.4°
Drops below altitude 10° 04:29:37 10° 16° (NNE) 2,467 5.0 -28.0°
Sets 04:32:40 0° 32° (NNE) 3,402 6.0 -27.5°
